Regional Weather Roundup
Issued by NWS Green Bay, WI

Home | Current Version | Previous Version | Text Only | Print | Product List | Glossary On
Versions: 1 2 3 4 5 6 7 8 9 10 11 12 13 14 15 16 17 18 19 20 21 22 23 24 25 26 27 28 29 30 31 32 33 34 35 36 37 38 39 40 41 42 43 44 45 46 47 48 49 50
000
ASUS43 KGRB 171411
RWRGRB

NORTH-CENTRAL AND NORTHEAST WISCONSIN REGIONAL WEATHER ROUNDUP
NATIONAL WEATHER SERVICE GREEN BAY WI
800 AM CST TUE JAN 17 2017

WIZ005-009-010>012-018-019-171500-
NORTH CENTRAL WISCONSIN

CITY           SKY/WX    TMP DP  RH WIND       PRES   REMARKS
IRONWOOD       CLOUDY    20  17  88 NW3       29.92S
MANITOWISH WTR CLOUDY    27  26  96 CALM      29.89S
ARBOR VITAE    MIX PCPN  32  28  87 CALM      29.89R
EAGLE RIVER    CLOUDY    29  24  81 NE5       29.88S
LAND O LAKES   CLOUDY    28  22  75 CALM      29.90S
RHINELANDER    CLOUDY    31  29  92 NE5       29.88S
PHILLIPS       MIX PCPN  30  30  99 N6        29.89R
ANTIGO         CLOUDY    32  32 100 NE7       29.85S FOG
TOMAHAWK       LGT RAIN  31  30  94 N3        29.89R
MERRILL        CLOUDY    33  33 100 NE5         N/A
$$

WIZ013-073-171500-
NORTHEAST WISCONSIN

CITY           SKY/WX    TMP DP  RH WIND       PRES   REMARKS
IRON MOUNTAIN  CLOUDY    28  20  71 N8        29.89S
MARINETTE      NOT AVBL
OCONTO         CLOUDY    32  32  99 N7        29.86S
$$

WIZ017-030-035>037-045-171500-
CENTRAL WISCONSIN

CITY           SKY/WX    TMP DP  RH WIND       PRES   REMARKS
MEDFORD        MIX PCPN  32  31  98 NE5       29.86R
WAUSAU         LGT RAIN  33  32  96 N5        29.84S FOG
MOSINEE        CLOUDY    32  32 100 N5        29.86R FOG
MARSHFIELD     FOG       33  32  96 NE7       29.84S VSB 1
WISC RAPIDS    CLOUDY    33  33 100 CALM      29.87R FOG
STEVENS POINT  CLOUDY    31  31 100 N5        29.86R FOG
WAUPACA        CLOUDY    34  32  94 CALM      29.84F FOG
SHAWANO        DRIZZLE   34  32  93 NE3       29.87R
CLINTONVILLE   MIX PCPN  32  32 100 N5        29.85F
WAUTOMA        CLOUDY    33  32  96 N6          N/A
$$

WIZ038-039-048-051-171500-
FOX VALLEY

CITY           SKY/WX    TMP DP  RH WIND       PRES   REMARKS
NWS GREEN BAY  CLOUDY    35  35 100 N13       29.85R FOG
APPLETON       CLOUDY    32  32 100 N12       29.81F FOG
OSHKOSH        CLOUDY    33  32  96 N7        29.82S FOG
FOND DU LAC    CLOUDY    33  31  92 N9        29.82S FOG
$$

WIZ022-050-052-171500-
EAST CENTRAL WISCONSIN

CITY           SKY/WX    TMP DP  RH WIND       PRES   REMARKS
EPHRAIM        LGT RAIN  34  34 100 NE12      29.84S
WASHINGTON ISL LGT RAIN  32  32  99 NE13G24   29.87S
STURGEON BAY   MIX PCPN  35  34  96 NE8       29.85R FOG
MANITOWOC      CLOUDY    36  35  96 N3        29.83R FOG
SHEBOYGAN      FOG       35  34  96 N7        29.81R VSB 1/4
$$

LMZ563-521-522-541>543-171500-
LAKESHORE

STATION/POSITION TIME  TEMP    WIND        PRES    VSBY  WAVE
                       AIR SEA DIR/SP/G                  HT/PER
                 (UTC) (F)     (DEG/KT/KT) (MB)    (MI)  (FT/S)
SHEBOYGAN LKSHOR 1300   35     350/  8/  8 1009.3R
KEWAUNEE LKSHORE 1348   35      20/  6/  9 1009.5R
SISTER BAY LKSHO 1350   35     100/  8/ 13   N/A
MENOMINEE LKSHOR 1348           20/ 20/ 23 1010.6R
$$




USA.gov is the U.S. government's official web portal to all federal, state and local government web resources and services.